Pisces — WTDL — position and weather

sailwx.info

Track history (hours):
 
Tides and Currents Weather Stations Pressure Air Temp Water Temp Dewpoint Dewpoint Depression Visibility Wind Speed Wind Dir Waves Ship Positions

Oceanographic research ship Pisces (USA)

Last reported at 2014-Aug-04 12:12 UTC. Time now 2014-Aug-20 22:31 UTC.
Position N 26°47' W 079°58'.
Warning: this ship's position is 16 days out of date.

Type: Other ship. MMSI: 369970145.

Date/timePositionNaut miles runAvg speedWind from/ knotsBaromVisibWave heightAir tempDewpointWater temp
2014-Aug-04 12:12N 26°47' W 079°58'6 8.8
2014-Aug-04 11:33N 26°53' W 079°58'10 9.5
2014-Aug-04 10:32N 27°03' W 079°58'48211.5
2014-Aug-02 16:33N 34°34' W 076°42'8 8.2
2014-Aug-02 15:33N 34°42' W 076°41'1 1.0
2014-Aug-02 14:31N 34°43' W 076°42'0 0.0
2014-Aug-02 13:31N 34°43' W 076°42'0 0.0
2014-Aug-02 12:31N 34°43' W 076°42'0 0.0
2014-Aug-02 11:31N 34°43' W 076°42'0 0.0
2014-Aug-02 10:31N 34°43' W 076°42'0 0.0
2014-Aug-02 09:31N 34°43' W 076°42'0 0.0
2014-Aug-02 08:31N 34°43' W 076°42'0 0.0
2014-Aug-02 07:31N 34°43' W 076°42'0 0.0
2014-Aug-02 06:31N 34°43' W 076°42'0 0.0
2014-Aug-02 05:31N 34°43' W 076°42'0 0.0
2014-Aug-02 04:31N 34°43' W 076°42'0 0.0
2014-Aug-02 03:31N 34°43' W 076°42'0 0.0
2014-Aug-02 02:33N 34°43' W 076°42'8 7.5
2014-Aug-02 01:34N 34°36' W 076°42'9 8.8
2014-Aug-02 00:33N 34°28' W 076°47'  
2014-Jul-28 02:26N 33°30' W 077°20'2 0.8
2014-Jul-27 23:31N 33°30' W 077°23'5 3.8
2014-Jul-27 22:16N 33°31' W 077°17'16 9.6
2014-Jul-27 20:33N 33°48' W 077°17'12 3.8
2014-Jul-27 17:19N 33°60' W 077°13'4 4.9
2014-Jul-27 16:30N 34°03' W 077°11'1 1.0
2014-Jul-27 15:31N 34°04' W 077°12'1 0.6
2014-Jul-27 14:33N 34°04' W 077°12'3 0.3
2014-Jul-27 06:32N 34°05' W 077°15'2 0.5
2014-Jul-27 03:33N 34°04' W 077°13'4 2.9
2014-Jul-27 02:08N 34°07' W 077°09'  
Track history (hours):
 
Tides and Currents Weather Stations Pressure Air Temp Water Temp Dewpoint Dewpoint Depression Visibility Wind Speed Wind Dir Waves Ship Positions

Oceanographic research ship Pisces (USA)

Last reported at 2014-Aug-04 12:12 UTC. Time now 2014-Aug-20 22:31 UTC.
Position N 26°47' W 079°58'.
Warning: this ship's position is 16 days out of date.

Type: Other ship. MMSI: 369970145.

Date/timePositionNaut miles runAvg speedWind from/ knotsBaromVisibWave heightAir tempDewpointWater temp
2014-Aug-04 12:12N 26°47' W 079°58'6 8.8
2014-Aug-04 11:33N 26°53' W 079°58'10 9.5
2014-Aug-04 10:32N 27°03' W 079°58'48211.5
2014-Aug-02 16:33N 34°34' W 076°42'8 8.2
2014-Aug-02 15:33N 34°42' W 076°41'1 1.0
2014-Aug-02 14:31N 34°43' W 076°42'0 0.0
2014-Aug-02 13:31N 34°43' W 076°42'0 0.0
2014-Aug-02 12:31N 34°43' W 076°42'0 0.0
2014-Aug-02 11:31N 34°43' W 076°42'0 0.0
2014-Aug-02 10:31N 34°43' W 076°42'0 0.0
2014-Aug-02 09:31N 34°43' W 076°42'0 0.0
2014-Aug-02 08:31N 34°43' W 076°42'0 0.0
2014-Aug-02 07:31N 34°43' W 076°42'0 0.0
2014-Aug-02 06:31N 34°43' W 076°42'0 0.0
2014-Aug-02 05:31N 34°43' W 076°42'0 0.0
2014-Aug-02 04:31N 34°43' W 076°42'0 0.0
2014-Aug-02 03:31N 34°43' W 076°42'0 0.0
2014-Aug-02 02:33N 34°43' W 076°42'8 7.5
2014-Aug-02 01:34N 34°36' W 076°42'9 8.8
2014-Aug-02 00:33N 34°28' W 076°47'  
2014-Jul-28 02:26N 33°30' W 077°20'2 0.8
2014-Jul-27 23:31N 33°30' W 077°23'5 3.8
2014-Jul-27 22:16N 33°31' W 077°17'16 9.6
2014-Jul-27 20:33N 33°48' W 077°17'12 3.8
2014-Jul-27 17:19N 33°60' W 077°13'4 4.9
2014-Jul-27 16:30N 34°03' W 077°11'1 1.0
2014-Jul-27 15:31N 34°04' W 077°12'1 0.6
2014-Jul-27 14:33N 34°04' W 077°12'3 0.3
2014-Jul-27 06:32N 34°05' W 077°15'2 0.5
2014-Jul-27 03:33N 34°04' W 077°13'4 2.9
2014-Jul-27 02:08N 34°07' W 077°09'  

Dump ship's entire track history